Time,TemperatureF,DewpointF,PressureIn,WindDirection,WindDirectionDegrees,WindSpeedMPH,WindSpeedGustMPH,Humidity,HourlyPrecipIn,Conditions,Clouds,dailyrainin,SoftwareType,DateUTC
2013-03-28 00:00:00,34.0,31.4,30.01,WNW,296,5.0,11.0,90,0.00,,,0.00,Wunderground v.1.15,2013-03-28 04:00:00,
2013-03-28 00:01:00,34.0,31.4,30.01,WNW,287,5.0,7.0,90,0.00,,,0.00,Wunderground v.1.15,2013-03-28 04:01:00,
2013-03-28 00:03:00,34.0,31.4,30.01,WNW,284,5.0,8.0,90,0.00,,,0.00,Wunderground v.1.15,2013-03-28 04:03:00,
2013-03-28 00:06:00,33.9,31.3,30.01,West,269,5.0,8.0,90,0.00,,,0.00,Wunderground v.1.15,2013-03-28 04:06:00,
2013-03-28 00:11:00,33.7,31.1,30.01,WNW,297,4.0,4.0,90,0.00,,,0.00,Wunderground v.1.15,2013-03-28 04:11:00,
2013-03-28 00:17:00,33.6,31.3,30.01,WNW,302,4.0,6.0,91,0.00,,,0.00,Wunderground v.1.15,2013-03-28 04:17:00,
2013-03-28 00:22:00,33.5,31.2,30.01,WNW,296,5.0,5.0,91,0.00,,,0.00,Wunderground v.1.15,2013-03-28 04:22:00,
2013-03-28 00:28:00,33.5,30.9,30.01,NNW,342,5.0,9.0,90,0.00,,,0.00,Wunderground v.1.15,2013-03-28 04:28:00,
2013-03-28 00:33:00,33.4,30.8,30.01,NW,308,6.0,11.0,90,0.00,,,0.00,Wunderground v.1.15,2013-03-28 04:33:00,
2013-03-28 00:39:00,33.4,31.1,30.01,West,271,6.0,11.0,91,0.00,,,0.00,Wunderground v.1.15,2013-03-28 04:39:00,
2013-03-28 00:45:00,33.5,31.2,30.01,WNW,284,6.0,8.0,91,0.00,,,0.00,Wunderground v.1.15,2013-03-28 04:45:00,
2013-03-28 00:50:00,33.5,31.2,30.01,West,273,7.0,9.0,91,0.00,,,0.00,Wunderground v.1.15,2013-03-28 04:50:00,
2013-03-28 00:57:00,33.6,31.3,30.01,West,278,6.0,9.0,91,0.00,,,0.00,Wunderground v.1.15,2013-03-28 04:57:00,
2013-03-28 01:02:00,33.6,31.3,30.01,West,267,6.0,6.0,91,0.00,,,0.00,Wunderground v.1.15,2013-03-28 05:02:00,
2013-03-28 01:07:00,33.7,31.1,30.01,WNW,291,6.0,7.0,90,0.00,,,0.00,Wunderground v.1.15,2013-03-28 05:07:00,
2013-03-28 01:13:00,33.7,31.1,30.00,WNW,294,6.0,10.0,90,0.00,,,0.00,Wunderground v.1.15,2013-03-28 05:13:00,
2013-03-28 01:18:00,33.9,31.3,30.01,WNW,295,7.0,10.0,90,0.00,,,0.00,Wunderground v.1.15,2013-03-28 05:18:00,
2013-03-28 01:24:00,33.8,31.2,30.01,WNW,283,6.0,7.0,90,0.00,,,0.00,Wunderground v.1.15,2013-03-28 05:24:00,
2013-03-28 01:29:00,33.9,31.3,30.01,WNW,288,6.0,7.0,90,0.00,,,0.00,Wunderground v.1.15,2013-03-28 05:29:00,
2013-03-28 01:34:00,33.9,31.3,30.01,WNW,291,6.0,9.0,90,0.00,,,0.00,Wunderground v.1.15,2013-03-28 05:34:00,
2013-03-28 01:39:00,33.9,31.3,30.01,WSW,249,6.0,9.0,90,0.00,,,0.00,Wunderground v.1.15,2013-03-28 05:39:00,
2013-03-28 01:45:00,33.9,31.3,30.01,SW,228,6.0,7.0,90,0.00,,,0.00,Wunderground v.1.15,2013-03-28 05:45:00,
2013-03-28 01:50:00,33.9,31.3,30.01,WNW,289,6.0,11.0,90,0.00,,,0.00,Wunderground v.1.15,2013-03-28 05:50:00,
2013-03-28 01:55:00,34.0,31.4,30.01,WNW,291,6.0,6.0,90,0.00,,,0.00,Wunderground v.1.15,2013-03-28 05:55:00,
2013-03-28 02:01:00,34.0,31.4,30.01,WNW,292,6.0,6.0,90,0.00,,,0.00,Wunderground v.1.15,2013-03-28 06:01:00,
2013-03-28 02:07:00,34.1,31.2,30.01,WNW,293,7.0,11.0,89,0.00,,,0.00,Wunderground v.1.15,2013-03-28 06:07:00,
2013-03-28 02:13:00,34.1,31.2,30.01,NW,307,6.0,7.0,89,0.00,,,0.00,Wunderground v.1.15,2013-03-28 06:13:00,
2013-03-28 02:19:00,34.1,31.5,30.01,WNW,296,6.0,10.0,90,0.00,,,0.00,Wunderground v.1.15,2013-03-28 06:19:00,
2013-03-28 02:24:00,34.0,31.4,30.01,WSW,256,6.0,8.0,90,0.00,,,0.00,Wunderground v.1.15,2013-03-28 06:24:00,
2013-03-28 02:30:00,34.0,31.4,30.00,West,267,6.0,8.0,90,0.00,,,0.00,Wunderground v.1.15,2013-03-28 06:30:00,
2013-03-28 02:36:00,34.0,31.4,30.00,WNW,287,6.0,8.0,90,0.00,,,0.00,Wunderground v.1.15,2013-03-28 06:36:00,
2013-03-28 02:42:00,33.9,31.3,30.00,WNW,285,6.0,6.0,90,0.00,,,0.00,Wunderground v.1.15,2013-03-28 06:42:00,
2013-03-28 02:47:00,33.9,31.6,30.00,West,269,6.0,11.0,91,0.00,,,0.00,Wunderground v.1.15,2013-03-28 06:47:00,
2013-03-28 02:52:00,33.8,31.5,30.00,WNW,296,6.0,8.0,91,0.00,,,0.00,Wunderground v.1.15,2013-03-28 06:52:00,
2013-03-28 02:58:00,33.7,31.4,30.00,WNW,291,7.0,11.0,91,0.00,,,0.00,Wunderground v.1.15,2013-03-28 06:58:00,
2013-03-28 03:03:00,33.7,31.6,30.00,WNW,288,7.0,9.0,92,0.00,,,0.00,Wunderground v.1.15,2013-03-28 07:03:00,
2013-03-28 03:09:00,33.6,31.5,30.00,WNW,297,6.0,9.0,92,0.00,,,0.00,Wunderground v.1.15,2013-03-28 07:09:00,
2013-03-28 03:14:00,33.6,31.5,30.00,WNW,295,6.0,10.0,92,0.00,,,0.00,Wunderground v.1.15,2013-03-28 07:14:00,
2013-03-28 03:20:00,33.7,31.6,30.00,WNW,292,6.0,10.0,92,0.00,,,0.00,Wunderground v.1.15,2013-03-28 07:20:00,
2013-03-28 03:26:00,33.7,31.6,30.00,WNW,290,7.0,9.0,92,0.00,,,0.00,Wunderground v.1.15,2013-03-28 07:26:00,
2013-03-28 03:31:00,33.7,31.6,30.00,WNW,293,7.0,7.0,92,0.00,,,0.00,Wunderground v.1.15,2013-03-28 07:31:00,
2013-03-28 03:36:00,33.8,31.7,30.00,WNW,288,7.0,10.0,92,0.00,,,0.00,Wunderground v.1.15,2013-03-28 07:36:00,
2013-03-28 03:42:00,33.8,31.7,30.00,WNW,294,8.0,9.0,92,0.00,,,0.00,Wunderground v.1.15,2013-03-28 07:42:00,
2013-03-28 03:47:00,33.8,31.7,30.00,West,278,7.0,9.0,92,0.00,,,0.00,Wunderground v.1.15,2013-03-28 07:47:00,
2013-03-28 03:53:00,33.9,31.8,30.00,West,274,7.0,11.0,92,0.00,,,0.00,Wunderground v.1.15,2013-03-28 07:53:00,
2013-03-28 03:58:00,33.9,31.6,30.00,West,269,7.0,11.0,91,0.00,,,0.00,Wunderground v.1.15,2013-03-28 07:58:00,
2013-03-28 04:04:00,33.9,31.6,30.00,WNW,302,7.0,9.0,91,0.00,,,0.00,Wunderground v.1.15,2013-03-28 08:04:00,
2013-03-28 04:11:00,33.9,31.6,30.00,WNW,290,7.0,7.0,91,0.00,,,0.00,Wunderground v.1.15,2013-03-28 08:11:00,
2013-03-28 04:16:00,33.9,31.6,30.00,WNW,288,7.0,9.0,91,0.00,,,0.00,Wunderground v.1.15,2013-03-28 08:16:00,
2013-03-28 04:22:00,33.9,31.6,30.00,WNW,291,6.0,7.0,91,0.00,,,0.00,Wunderground v.1.15,2013-03-28 08:22:00,
2013-03-28 04:27:00,33.9,31.6,30.00,WNW,296,6.0,9.0,91,0.00,,,0.00,Wunderground v.1.15,2013-03-28 08:27:00,
2013-03-28 04:33:00,34.0,31.6,30.00,WNW,285,7.0,7.0,91,0.00,,,0.00,Wunderground v.1.15,2013-03-28 08:33:00,
2013-03-28 04:39:00,34.0,31.6,30.00,SSW,211,7.0,8.0,91,0.00,,,0.00,Wunderground v.1.15,2013-03-28 08:39:00,
2013-03-28 04:44:00,34.0,31.6,30.01,WNW,300,7.0,8.0,91,0.00,,,0.00,Wunderground v.1.15,2013-03-28 08:44:00,
2013-03-28 04:50:00,34.0,31.6,30.01,West,280,7.0,10.0,91,0.00,,,0.00,Wunderground v.1.15,2013-03-28 08:50:00,
2013-03-28 04:55:00,34.0,31.6,30.01,WNW,289,7.0,11.0,91,0.00,,,0.00,Wunderground v.1.15,2013-03-28 08:55:00,
2013-03-28 05:01:00,34.0,31.6,30.01,WNW,287,8.0,8.0,91,0.00,,,0.00,Wunderground v.1.15,2013-03-28 09:01:00,
2013-03-28 05:07:00,34.0,31.6,30.01,WNW,291,8.0,9.0,91,0.00,,,0.00,Wunderground v.1.15,2013-03-28 09:07:00,
2013-03-28 05:12:00,34.0,31.6,30.01,West,260,7.0,7.0,91,0.00,,,0.00,Wunderground v.1.15,2013-03-28 09:12:00,
2013-03-28 05:18:00,34.0,31.6,30.01,WNW,287,7.0,10.0,91,0.00,,,0.00,Wunderground v.1.15,2013-03-28 09:18:00,
2013-03-28 05:23:00,34.0,31.6,30.01,WNW,283,8.0,9.0,91,0.00,,,0.00,Wunderground v.1.15,2013-03-28 09:23:00,
2013-03-28 05:29:00,34.1,31.7,30.01,WNW,302,8.0,11.0,91,0.00,,,0.00,Wunderground v.1.15,2013-03-28 09:29:00,
2013-03-28 05:35:00,34.1,31.7,30.01,WNW,285,8.0,10.0,91,0.00,,,0.00,Wunderground v.1.15,2013-03-28 09:35:00,
2013-03-28 05:40:00,34.1,31.7,30.02,NW,322,8.0,11.0,91,0.00,,,0.00,Wunderground v.1.15,2013-03-28 09:40:00,
2013-03-28 05:46:00,34.1,31.7,30.01,WNW,287,7.0,8.0,91,0.00,,,0.00,Wunderground v.1.15,2013-03-28 09:46:00,
2013-03-28 05:52:00,34.1,31.7,30.01,West,270,7.0,7.0,91,0.00,,,0.00,Wunderground v.1.15,2013-03-28 09:52:00,
2013-03-28 05:58:00,34.1,31.7,30.02,WNW,284,7.0,10.0,91,0.00,,,0.00,Wunderground v.1.15,2013-03-28 09:58:00,
2013-03-28 06:03:00,34.1,31.7,30.02,WNW,291,7.0,8.0,91,0.00,,,0.00,Wunderground v.1.15,2013-03-28 10:03:00,
2013-03-28 06:09:00,34.1,31.7,30.02,West,274,7.0,8.0,91,0.00,,,0.00,Wunderground v.1.15,2013-03-28 10:09:00,
2013-03-28 06:14:00,34.1,31.7,30.02,WNW,295,7.0,9.0,91,0.00,,,0.00,Wunderground v.1.15,2013-03-28 10:14:00,
2013-03-28 06:20:00,34.1,31.7,30.02,WNW,282,8.0,10.0,91,0.00,,,0.00,Wunderground v.1.15,2013-03-28 10:20:00,
2013-03-28 06:25:00,34.1,31.7,30.02,WNW,285,8.0,9.0,91,0.00,,,0.00,Wunderground v.1.15,2013-03-28 10:25:00,
2013-03-28 06:32:00,34.2,31.8,30.02,SW,230,8.0,9.0,91,0.00,,,0.00,Wunderground v.1.15,2013-03-28 10:32:00,
2013-03-28 06:38:00,34.2,31.8,30.02,West,273,8.0,11.0,91,0.00,,,0.00,Wunderground v.1.15,2013-03-28 10:38:00,
2013-03-28 06:44:00,34.2,31.8,30.03,WNW,293,7.0,9.0,91,0.00,,,0.00,Wunderground v.1.15,2013-03-28 10:44:00,
2013-03-28 06:50:00,34.2,31.8,30.03,WNW,288,7.0,9.0,91,0.00,,,0.00,Wunderground v.1.15,2013-03-28 10:50:00,
2013-03-28 06:55:00,34.2,31.8,30.03,WNW,295,7.0,10.0,91,0.00,,,0.00,Wunderground v.1.15,2013-03-28 10:55:00,
2013-03-28 07:00:00,34.3,31.9,30.03,WNW,288,7.0,10.0,91,0.00,,,0.00,Wunderground v.1.15,2013-03-28 11:00:00,
2013-03-28 07:06:00,34.3,31.9,30.03,WNW,302,7.0,8.0,91,0.00,,,0.00,Wunderground v.1.15,2013-03-28 11:06:00,
2013-03-28 07:11:00,34.3,31.9,30.04,West,273,7.0,10.0,91,0.00,,,0.00,Wunderground v.1.15,2013-03-28 11:11:00,
2013-03-28 07:16:00,34.3,31.9,30.04,WNW,290,8.0,10.0,91,0.00,,,0.00,Wunderground v.1.15,2013-03-28 11:16:00,
2013-03-28 07:22:00,34.3,31.9,30.04,WNW,288,8.0,8.0,91,0.00,,,0.00,Wunderground v.1.15,2013-03-28 11:22:00,
2013-03-28 07:28:00,34.3,31.9,30.04,WNW,294,8.0,13.0,91,0.00,,,0.00,Wunderground v.1.15,2013-03-28 11:28:00,
2013-03-28 07:34:00,34.4,32.0,30.05,WNW,294,8.0,12.0,91,0.00,,,0.00,Wunderground v.1.15,2013-03-28 11:34:00,
2013-03-28 07:39:00,34.4,32.0,30.05,WNW,287,7.0,12.0,91,0.00,,,0.00,Wunderground v.1.15,2013-03-28 11:39:00,
2013-03-28 07:44:00,34.5,32.1,30.05,WNW,285,7.0,9.0,91,0.00,,,0.00,Wunderground v.1.15,2013-03-28 11:44:00,
2013-03-28 07:49:00,34.5,32.1,30.05,WNW,293,7.0,9.0,91,0.00,,,0.00,Wunderground v.1.15,2013-03-28 11:49:00,
2013-03-28 07:55:00,34.5,32.1,30.05,WNW,287,8.0,11.0,91,0.00,,,0.00,Wunderground v.1.15,2013-03-28 11:55:00,
2013-03-28 08:01:00,34.6,32.2,30.06,West,263,7.0,7.0,91,0.00,,,0.00,Wunderground v.1.15,2013-03-28 12:01:00,
2013-03-28 08:07:00,34.7,32.1,30.06,WNW,295,7.0,9.0,90,0.00,,,0.00,Wunderground v.1.15,2013-03-28 12:07:00,
2013-03-28 08:12:00,34.7,32.3,30.06,West,281,7.0,7.0,91,0.00,,,0.00,Wunderground v.1.15,2013-03-28 12:12:00,
2013-03-28 08:18:00,34.8,32.4,30.06,WNW,293,7.0,7.0,91,0.00,,,0.00,Wunderground v.1.15,2013-03-28 12:18:00,
2013-03-28 08:23:00,34.9,32.3,30.06,West,281,7.0,10.0,90,0.00,,,0.00,Wunderground v.1.15,2013-03-28 12:23:00,
2013-03-28 08:29:00,34.9,32.3,30.06,West,277,8.0,10.0,90,0.00,,,0.00,Wunderground v.1.15,2013-03-28 12:29:00,
2013-03-28 08:34:00,35.0,32.4,30.06,WNW,294,8.0,12.0,90,0.00,,,0.00,Wunderground v.1.15,2013-03-28 12:34:00,
2013-03-28 08:40:00,35.1,32.5,30.06,WNW,294,8.0,12.0,90,0.00,,,0.00,Wunderground v.1.15,2013-03-28 12:40:00,
2013-03-28 08:46:00,35.1,32.5,30.06,WNW,290,8.0,13.0,90,0.00,,,0.00,Wunderground v.1.15,2013-03-28 12:46:00,
2013-03-28 08:52:00,35.2,32.6,30.06,West,278,8.0,8.0,90,0.00,,,0.00,Wunderground v.1.15,2013-03-28 12:52:00,
2013-03-28 08:57:00,35.3,32.7,30.07,WNW,286,8.0,11.0,90,0.00,,,0.00,Wunderground v.1.15,2013-03-28 12:57:00,
2013-03-28 09:03:00,35.4,32.8,30.06,NW,312,9.0,9.0,90,0.00,,,0.00,Wunderground v.1.15,2013-03-28 13:03:00,
2013-03-28 09:08:00,35.6,32.7,30.07,WNW,302,8.0,12.0,89,0.00,,,0.00,Wunderground v.1.15,2013-03-28 13:08:00,
2013-03-28 09:14:00,35.7,32.8,30.07,WNW,292,8.0,10.0,89,0.00,,,0.00,Wunderground v.1.15,2013-03-28 13:14:00,
2013-03-28 09:19:00,35.9,33.0,30.07,WNW,290,9.0,10.0,89,0.00,,,0.00,Wunderground v.1.15,2013-03-28 13:19:00,
2013-03-28 09:25:00,36.0,32.8,30.07,WNW,290,9.0,11.0,88,0.00,,,0.00,Wunderground v.1.15,2013-03-28 13:25:00,
2013-03-28 09:30:00,36.0,32.8,30.07,WNW,291,10.0,14.0,88,0.00,,,0.00,Wunderground v.1.15,2013-03-28 13:30:00,
2013-03-28 09:36:00,36.3,33.4,30.07,West,277,9.0,10.0,89,0.00,,,0.00,Wunderground v.1.15,2013-03-28 13:36:00,
2013-03-28 09:41:00,36.3,33.1,30.07,WNW,285,9.0,9.0,88,0.00,,,0.00,Wunderground v.1.15,2013-03-28 13:41:00,
2013-03-28 09:47:00,36.5,33.3,30.07,WNW,291,10.0,12.0,88,0.00,,,0.00,Wunderground v.1.15,2013-03-28 13:47:00,
2013-03-28 09:52:00,36.7,33.2,30.07,WNW,292,10.0,14.0,87,0.00,,,0.00,Wunderground v.1.15,2013-03-28 13:52:00,
2013-03-28 09:57:00,36.7,33.2,30.07,WNW,285,12.0,15.0,87,0.00,,,0.00,Wunderground v.1.15,2013-03-28 13:57:00,
2013-03-28 10:02:00,37.0,33.5,30.07,WNW,295,12.0,12.0,87,0.00,,,0.00,Wunderground v.1.15,2013-03-28 14:02:00,
2013-03-28 10:09:00,37.2,33.7,30.07,WNW,288,12.0,20.0,87,0.00,,,0.00,Wunderground v.1.15,2013-03-28 14:09:00,
2013-03-28 10:15:00,37.3,33.5,30.07,WNW,283,12.0,16.0,86,0.00,,,0.00,Wunderground v.1.15,2013-03-28 14:15:00,
2013-03-28 10:20:00,37.5,33.4,30.07,WNW,293,13.0,16.0,85,0.00,,,0.00,Wunderground v.1.15,2013-03-28 14:20:00,
2013-03-28 10:25:00,37.7,33.6,30.08,West,266,12.0,13.0,85,0.00,,,0.00,Wunderground v.1.15,2013-03-28 14:25:00,
2013-03-28 10:31:00,38.1,34.0,30.08,WNW,294,10.0,15.0,85,0.00,,,0.00,Wunderground v.1.15,2013-03-28 14:31:00,
2013-03-28 10:38:00,38.4,34.0,30.08,WNW,288,11.0,18.0,84,0.00,,,0.00,Wunderground v.1.15,2013-03-28 14:38:00,
2013-03-28 10:44:00,38.7,34.3,30.08,WNW,291,10.0,14.0,84,0.00,,,0.00,Wunderground v.1.15,2013-03-28 14:44:00,
2013-03-28 10:49:00,38.4,33.4,30.08,WNW,291,12.0,18.0,82,0.00,,,0.00,Wunderground v.1.15,2013-03-28 14:49:00,
2013-03-28 10:55:00,38.5,33.5,30.08,WNW,293,14.0,16.0,82,0.00,,,0.00,Wunderground v.1.15,2013-03-28 14:55:00,
2013-03-28 11:00:00,38.8,33.8,30.08,West,281,13.0,16.0,82,0.00,,,0.00,Wunderground v.1.15,2013-03-28 15:00:00,
2013-03-28 11:05:00,39.2,33.9,30.08,NW,309,11.0,13.0,81,0.00,,,0.00,Wunderground v.1.15,2013-03-28 15:05:00,
2013-03-28 11:10:00,39.2,33.5,30.08,WNW,287,11.0,13.0,80,0.00,,,0.00,Wunderground v.1.15,2013-03-28 15:10:00,
2013-03-28 11:17:00,39.3,34.0,30.08,WNW,291,11.0,12.0,81,0.00,,,0.00,Wunderground v.1.15,2013-03-28 15:17:00,
2013-03-28 11:22:00,39.6,33.9,30.08,NW,307,10.0,13.0,80,0.00,,,0.00,Wunderground v.1.15,2013-03-28 15:22:00,
2013-03-28 11:27:00,40.0,34.0,30.08,WNW,294,9.0,14.0,79,0.00,,,0.00,Wunderground v.1.15,2013-03-28 15:27:00,
2013-03-28 11:32:00,40.0,33.7,30.09,West,280,9.0,13.0,78,0.00,,,0.00,Wunderground v.1.15,2013-03-28 15:32:00,
2013-03-28 11:38:00,40.3,34.3,30.09,WNW,288,9.0,13.0,79,0.00,,,0.00,Wunderground v.1.15,2013-03-28 15:38:00,
2013-03-28 11:43:00,40.6,34.3,30.09,NW,309,7.0,10.0,78,0.00,,,0.00,Wunderground v.1.15,2013-03-28 15:43:00,
2013-03-28 11:49:00,40.6,34.0,30.09,WNW,288,9.0,14.0,77,0.00,,,0.00,Wunderground v.1.15,2013-03-28 15:49:00,
2013-03-28 11:55:00,41.0,34.3,30.09,WNW,295,11.0,14.0,77,0.00,,,0.00,Wunderground v.1.15,2013-03-28 15:55:00,
2013-03-28 12:00:00,41.0,35.0,30.09,WNW,296,11.0,14.0,79,0.00,,,0.00,Wunderground v.1.15,2013-03-28 16:00:00,
2013-03-28 12:06:00,41.4,34.4,30.08,WNW,295,10.0,17.0,76,0.00,,,0.00,Wunderground v.1.15,2013-03-28 16:06:00,
2013-03-28 12:11:00,41.9,34.6,30.09,WNW,285,11.0,11.0,75,0.00,,,0.00,Wunderground v.1.15,2013-03-28 16:11:00,
2013-03-28 12:17:00,42.1,34.4,30.09,WNW,291,9.0,16.0,74,0.00,,,0.00,Wunderground v.1.15,2013-03-28 16:17:00,
2013-03-28 12:23:00,42.4,34.0,30.09,WNW,295,10.0,11.0,72,0.00,,,0.00,Wunderground v.1.15,2013-03-28 16:23:00,
2013-03-28 12:29:00,42.9,34.8,30.09,WNW,292,7.0,13.0,73,0.00,,,0.00,Wunderground v.1.15,2013-03-28 16:29:00,
2013-03-28 12:34:00,42.8,34.0,30.09,WNW,285,8.0,16.0,71,0.00,,,0.00,Wunderground v.1.15,2013-03-28 16:34:00,
2013-03-28 12:40:00,42.6,34.2,30.09,NW,316,10.0,16.0,72,0.00,,,0.00,Wunderground v.1.15,2013-03-28 16:40:00,
2013-03-28 12:45:00,42.9,34.1,30.09,WNW,294,8.0,14.0,71,0.00,,,0.00,Wunderground v.1.15,2013-03-28 16:45:00,
2013-03-28 12:51:00,43.0,33.5,30.08,WNW,302,9.0,12.0,69,0.00,,,0.00,Wunderground v.1.15,2013-03-28 16:51:00,
2013-03-28 12:56:00,43.2,34.4,30.08,WNW,294,11.0,18.0,71,0.00,,,0.00,Wunderground v.1.15,2013-03-28 16:56:00,
2013-03-28 13:01:00,43.8,34.3,30.08,WNW,284,11.0,11.0,69,0.00,,,0.00,Wunderground v.1.15,2013-03-28 17:01:00,
2013-03-28 13:07:00,43.7,33.1,30.08,WNW,298,10.0,22.0,66,0.00,,,0.00,Wunderground v.1.15,2013-03-28 17:07:00,
2013-03-28 13:13:00,43.5,33.3,30.08,WNW,302,11.0,13.0,67,0.00,,,0.00,Wunderground v.1.15,2013-03-28 17:13:00,
2013-03-28 13:18:00,43.3,32.3,30.08,WNW,288,12.0,15.0,65,0.00,,,0.00,Wunderground v.1.15,2013-03-28 17:18:00,
2013-03-28 13:24:00,43.7,33.8,30.08,WNW,284,13.0,13.0,68,0.00,,,0.00,Wunderground v.1.15,2013-03-28 17:24:00,
2013-03-28 13:30:00,43.8,33.2,30.08,WNW,288,10.0,16.0,66,0.00,,,0.00,Wunderground v.1.15,2013-03-28 17:30:00,
2013-03-28 13:35:00,44.0,32.6,30.08,WNW,298,11.0,13.0,64,0.00,,,0.00,Wunderground v.1.15,2013-03-28 17:35:00,
2013-03-28 13:41:00,44.7,32.9,30.08,WNW,293,11.0,12.0,63,0.00,,,0.00,Wunderground v.1.15,2013-03-28 17:41:00,
2013-03-28 13:47:00,44.1,31.1,30.08,NNW,333,11.0,18.0,60,0.00,,,0.00,Wunderground v.1.15,2013-03-28 17:47:00,
2013-03-28 13:53:00,44.2,32.4,30.08,WNW,294,12.0,12.0,63,0.00,,,0.00,Wunderground v.1.15,2013-03-28 17:53:00,
2013-03-28 13:59:00,44.3,32.5,30.08,West,281,12.0,17.0,63,0.00,,,0.00,Wunderground v.1.15,2013-03-28 17:59:00,
2013-03-28 14:04:00,43.8,31.6,30.08,WNW,293,13.0,18.0,62,0.00,,,0.00,Wunderground v.1.15,2013-03-28 18:04:00,
2013-03-28 14:10:00,44.3,31.3,30.08,West,277,12.0,18.0,60,0.00,,,0.00,Wunderground v.1.15,2013-03-28 18:10:00,
2013-03-28 14:15:00,45.3,32.6,30.08,NNW,334,11.0,16.0,61,0.00,,,0.00,Wunderground v.1.15,2013-03-28 18:15:00,
2013-03-28 14:21:00,45.7,31.8,30.08,WNW,283,10.0,15.0,58,0.00,,,0.00,Wunderground v.1.15,2013-03-28 18:21:00,
2013-03-28 14:27:00,45.2,31.7,30.08,WNW,291,13.0,19.0,59,0.00,,,0.00,Wunderground v.1.15,2013-03-28 18:27:00,
2013-03-28 14:32:00,45.2,30.4,30.08,NNE,18,12.0,13.0,56,0.00,,,0.00,Wunderground v.1.15,2013-03-28 18:32:00,
2013-03-28 14:37:00,45.1,31.2,30.08,NNW,343,9.0,16.0,58,0.00,,,0.00,Wunderground v.1.15,2013-03-28 18:37:00,
2013-03-28 14:42:00,44.7,30.4,30.08,WNW,288,9.0,14.0,57,0.00,,,0.00,Wunderground v.1.15,2013-03-28 18:42:00,
2013-03-28 14:47:00,45.0,30.2,30.08,NW,318,10.0,14.0,56,0.00,,,0.00,Wunderground v.1.15,2013-03-28 18:47:00,
2013-03-28 14:53:00,45.1,31.2,30.08,SW,215,10.0,11.0,58,0.00,,,0.00,Wunderground v.1.15,2013-03-28 18:53:00,
2013-03-28 14:58:00,45.2,30.4,30.08,WNW,302,10.0,14.0,56,0.00,,,0.00,Wunderground v.1.15,2013-03-28 18:58:00,
2013-03-28 15:03:00,45.5,30.3,30.08,WNW,297,8.0,10.0,55,0.00,,,0.00,Wunderground v.1.15,2013-03-28 19:03:00,
2013-03-28 15:08:00,45.4,29.7,30.08,NW,305,7.0,10.0,54,0.00,,,0.00,Wunderground v.1.15,2013-03-28 19:08:00,
2013-03-28 15:14:00,45.6,29.9,30.08,NNE,24,7.0,10.0,54,0.00,,,0.00,Wunderground v.1.15,2013-03-28 19:14:00,
2013-03-28 15:19:00,45.2,29.1,30.08,NW,307,9.0,19.0,53,0.00,,,0.00,Wunderground v.1.15,2013-03-28 19:19:00,
2013-03-28 15:24:00,45.4,28.3,30.08,WNW,289,9.0,17.0,51,0.00,,,0.00,Wunderground v.1.15,2013-03-28 19:24:00,
2013-03-28 15:30:00,45.3,30.1,30.08,WNW,284,9.0,21.0,55,0.00,,,0.00,Wunderground v.1.15,2013-03-28 19:30:00,
2013-03-28 15:35:00,45.4,31.0,30.08,WNW,294,8.0,12.0,57,0.00,,,0.00,Wunderground v.1.15,2013-03-28 19:35:00,
2013-03-28 15:42:00,45.0,30.7,30.08,WNW,291,9.0,13.0,57,0.00,,,0.00,Wunderground v.1.15,2013-03-28 19:42:00,
2013-03-28 15:47:00,44.8,30.0,30.08,NW,314,9.0,13.0,56,0.00,,,0.00,Wunderground v.1.15,2013-03-28 19:47:00,
2013-03-28 15:53:00,44.9,30.6,30.08,WNW,287,10.0,19.0,57,0.00,,,0.00,Wunderground v.1.15,2013-03-28 19:53:00,
2013-03-28 15:58:00,44.7,30.8,30.08,WNW,290,13.0,19.0,58,0.00,,,0.00,Wunderground v.1.15,2013-03-28 19:58:00,
2013-03-28 16:04:00,44.5,30.2,30.08,NW,304,14.0,15.0,57,0.00,,,0.00,Wunderground v.1.15,2013-03-28 20:04:00,
2013-03-28 16:09:00,44.9,30.6,30.08,WNW,294,13.0,19.0,57,0.00,,,0.00,Wunderground v.1.15,2013-03-28 20:09:00,
2013-03-28 16:15:00,44.7,30.4,30.08,WNW,288,13.0,16.0,57,0.00,,,0.00,Wunderground v.1.15,2013-03-28 20:15:00,
2013-03-28 16:21:00,44.8,30.9,30.08,WNW,294,13.0,19.0,58,0.00,,,0.00,Wunderground v.1.15,2013-03-28 20:21:00,
2013-03-28 16:26:00,44.6,30.7,30.08,West,281,13.0,19.0,58,0.00,,,0.00,Wunderground v.1.15,2013-03-28 20:26:00,
2013-03-28 16:32:00,44.5,29.3,30.08,WNW,289,14.0,20.0,55,0.00,,,0.00,Wunderground v.1.15,2013-03-28 20:32:00,
2013-03-28 16:37:00,44.4,29.7,30.09,WNW,293,15.0,20.0,56,0.00,,,0.00,Wunderground v.1.15,2013-03-28 20:37:00,
2013-03-28 16:42:00,44.5,29.3,30.09,WNW,296,14.0,15.0,55,0.00,,,0.00,Wunderground v.1.15,2013-03-28 20:42:00,
2013-03-28 16:48:00,44.3,29.6,30.09,WNW,293,12.0,15.0,56,0.00,,,0.00,Wunderground v.1.15,2013-03-28 20:48:00,
2013-03-28 16:53:00,44.4,30.1,30.09,WNW,298,12.0,12.0,57,0.00,,,0.00,Wunderground v.1.15,2013-03-28 20:53:00,
2013-03-28 16:58:00,44.3,30.0,30.09,WNW,302,11.0,14.0,57,0.00,,,0.00,Wunderground v.1.15,2013-03-28 20:58:00,
2013-03-28 17:03:00,44.1,29.4,30.09,WNW,302,12.0,16.0,56,0.00,,,0.00,Wunderground v.1.15,2013-03-28 21:03:00,
2013-03-28 17:08:00,44.0,29.7,30.09,WNW,295,13.0,16.0,57,0.00,,,0.00,Wunderground v.1.15,2013-03-28 21:08:00,
2013-03-28 17:14:00,44.0,30.2,30.09,NW,305,11.0,15.0,58,0.00,,,0.00,Wunderground v.1.15,2013-03-28 21:14:00,
2013-03-28 17:20:00,44.0,29.7,30.09,NW,314,10.0,15.0,57,0.00,,,0.00,Wunderground v.1.15,2013-03-28 21:20:00,
2013-03-28 17:26:00,43.9,29.2,30.10,WNW,294,11.0,18.0,56,0.00,,,0.00,Wunderground v.1.15,2013-03-28 21:26:00,
2013-03-28 17:31:00,43.9,29.6,30.10,NW,305,10.0,13.0,57,0.00,,,0.00,Wunderground v.1.15,2013-03-28 21:31:00,
2013-03-28 17:37:00,43.7,29.5,30.10,NE,44,9.0,13.0,57,0.00,,,0.00,Wunderground v.1.15,2013-03-28 21:37:00,
2013-03-28 17:43:00,43.8,30.4,30.10,North,350,7.0,11.0,59,0.00,,,0.00,Wunderground v.1.15,2013-03-28 21:43:00,
2013-03-28 17:48:00,43.8,29.5,30.10,NE,50,6.0,13.0,57,0.00,,,0.00,Wunderground v.1.15,2013-03-28 21:48:00,
2013-03-28 17:53:00,43.9,30.1,30.10,NNW,327,5.0,6.0,58,0.00,,,0.00,Wunderground v.1.15,2013-03-28 21:53:00,
2013-03-28 17:59:00,43.7,29.9,30.10,West,274,6.0,13.0,58,0.00,,,0.00,Wunderground v.1.15,2013-03-28 21:59:00,
2013-03-28 18:04:00,43.6,30.6,30.11,WNW,293,8.0,10.0,60,0.00,,,0.00,Wunderground v.1.15,2013-03-28 22:04:00,
2013-03-28 18:10:00,43.7,30.3,30.11,WNW,287,7.0,10.0,59,0.00,,,0.00,Wunderground v.1.15,2013-03-28 22:10:00,
2013-03-28 18:15:00,43.6,29.8,30.11,WNW,291,8.0,14.0,58,0.00,,,0.00,Wunderground v.1.15,2013-03-28 22:15:00,
2013-03-28 18:20:00,43.4,30.0,30.11,WNW,284,11.0,15.0,59,0.00,,,0.00,Wunderground v.1.15,2013-03-28 22:20:00,
2013-03-28 18:25:00,43.4,29.6,30.11,NW,314,10.0,11.0,58,0.00,,,0.00,Wunderground v.1.15,2013-03-28 22:25:00,
2013-03-28 18:30:00,43.3,29.9,30.11,NW,309,9.0,11.0,59,0.00,,,0.00,Wunderground v.1.15,2013-03-28 22:30:00,
2013-03-28 18:36:00,43.2,29.8,30.11,West,281,9.0,11.0,59,0.00,,,0.00,Wunderground v.1.15,2013-03-28 22:36:00,
2013-03-28 18:41:00,43.1,30.1,30.11,WNW,296,9.0,12.0,60,0.00,,,0.00,Wunderground v.1.15,2013-03-28 22:41:00,
2013-03-28 18:47:00,43.0,30.5,30.12,WNW,302,10.0,12.0,61,0.00,,,0.00,Wunderground v.1.15,2013-03-28 22:47:00,
2013-03-28 18:52:00,42.9,30.4,30.12,WNW,293,8.0,11.0,61,0.00,,,0.00,Wunderground v.1.15,2013-03-28 22:52:00,
2013-03-28 18:58:00,42.8,30.7,30.12,North,356,9.0,15.0,62,0.00,,,0.00,Wunderground v.1.15,2013-03-28 22:58:00,
2013-03-28 19:04:00,42.8,30.3,30.12,WNW,302,9.0,11.0,61,0.00,,,0.00,Wunderground v.1.15,2013-03-28 23:04:00,
2013-03-28 19:10:00,42.7,30.2,30.12,WNW,288,11.0,14.0,61,0.00,,,0.00,Wunderground v.1.15,2013-03-28 23:10:00,
2013-03-28 19:15:00,42.5,30.0,30.13,North,352,10.0,11.0,61,0.00,,,0.00,Wunderground v.1.15,2013-03-28 23:15:00,
2013-03-28 19:21:00,42.4,30.3,30.13,WNW,284,9.0,12.0,62,0.00,,,0.00,Wunderground v.1.15,2013-03-28 23:21:00,
2013-03-28 19:26:00,42.3,30.2,30.13,NW,307,10.0,15.0,62,0.00,,,0.00,Wunderground v.1.15,2013-03-28 23:26:00,
2013-03-28 19:32:00,42.2,30.5,30.13,WNW,288,9.0,10.0,63,0.00,,,0.00,Wunderground v.1.15,2013-03-28 23:32:00,
2013-03-28 19:37:00,42.1,30.4,30.13,WNW,291,9.0,12.0,63,0.00,,,0.00,Wunderground v.1.15,2013-03-28 23:37:00,
2013-03-28 19:42:00,41.9,30.2,30.13,WNW,290,9.0,9.0,63,0.00,,,0.00,Wunderground v.1.15,2013-03-28 23:42:00,
2013-03-28 19:48:00,41.8,30.1,30.14,WNW,291,8.0,12.0,63,0.00,,,0.00,Wunderground v.1.15,2013-03-28 23:48:00,
2013-03-28 19:53:00,41.7,29.6,30.13,WNW,298,9.0,14.0,62,0.00,,,0.00,Wunderground v.1.15,2013-03-28 23:53:00,
2013-03-28 19:59:00,41.5,29.4,30.14,WNW,288,11.0,14.0,62,0.00,,,0.00,Wunderground v.1.15,2013-03-28 23:59:00,
2013-03-28 20:04:00,41.4,29.3,30.14,WNW,300,9.0,10.0,62,0.00,,,0.00,Wunderground v.1.15,2013-03-29 00:04:00,
2013-03-28 20:09:00,41.3,29.3,30.14,WNW,290,9.0,10.0,62,0.00,,,0.00,Wunderground v.1.15,2013-03-29 00:09:00,
2013-03-28 20:15:00,41.2,29.5,30.14,WNW,293,7.0,8.0,63,0.00,,,0.00,Wunderground v.1.15,2013-03-29 00:15:00,
2013-03-28 20:21:00,41.1,29.5,30.15,WNW,298,6.0,6.0,63,0.00,,,0.00,Wunderground v.1.15,2013-03-29 00:21:00,
2013-03-28 20:26:00,41.2,29.5,30.14,West,281,6.0,9.0,63,0.00,,,0.00,Wunderground v.1.15,2013-03-29 00:26:00,
2013-03-28 20:32:00,41.1,29.5,30.15,WNW,287,5.0,7.0,63,0.00,,,0.00,Wunderground v.1.15,2013-03-29 00:32:00,
2013-03-28 20:37:00,41.1,29.5,30.15,WNW,294,6.0,7.0,63,0.00,,,0.00,Wunderground v.1.15,2013-03-29 00:37:00,
2013-03-28 20:42:00,41.1,29.5,30.15,WNW,291,7.0,7.0,63,0.00,,,0.00,Wunderground v.1.15,2013-03-29 00:42:00,
2013-03-28 20:47:00,41.1,29.5,30.15,West,276,7.0,8.0,63,0.00,,,0.00,Wunderground v.1.15,2013-03-29 00:47:00,
2013-03-28 20:53:00,41.1,29.1,30.15,WNW,293,7.0,8.0,62,0.00,,,0.00,Wunderground v.1.15,2013-03-29 00:53:00,
2013-03-28 20:59:00,40.9,29.3,30.15,WNW,288,6.0,8.0,63,0.00,,,0.00,Wunderground v.1.15,2013-03-29 00:59:00,
2013-03-28 21:04:00,40.9,28.9,30.15,West,280,6.0,7.0,62,0.00,,,0.00,Wunderground v.1.15,2013-03-29 01:04:00,
2013-03-28 21:09:00,41.0,29.0,30.15,WSW,257,6.0,8.0,62,0.00,,,0.00,Wunderground v.1.15,2013-03-29 01:09:00,
2013-03-28 21:15:00,41.1,28.3,30.16,WNW,284,8.0,15.0,60,0.00,,,0.00,Wunderground v.1.15,2013-03-29 01:15:00,
2013-03-28 21:21:00,41.1,28.3,30.16,West,281,10.0,10.0,60,0.00,,,0.00,Wunderground v.1.15,2013-03-29 01:21:00,
2013-03-28 21:27:00,41.1,28.3,30.16,WNW,287,9.0,10.0,60,0.00,,,0.00,Wunderground v.1.15,2013-03-29 01:27:00,
2013-03-28 21:33:00,41.1,27.9,30.16,WNW,285,8.0,14.0,59,0.00,,,0.00,Wunderground v.1.15,2013-03-29 01:33:00,
2013-03-28 21:38:00,41.1,28.3,30.16,WNW,291,9.0,14.0,60,0.00,,,0.00,Wunderground v.1.15,2013-03-29 01:38:00,
2013-03-28 21:44:00,41.0,28.2,30.16,WNW,300,9.0,10.0,60,0.00,,,0.00,Wunderground v.1.15,2013-03-29 01:44:00,
2013-03-28 21:49:00,40.9,27.7,30.16,WNW,293,9.0,12.0,59,0.00,,,0.00,Wunderground v.1.15,2013-03-29 01:49:00,
2013-03-28 21:55:00,40.9,28.1,30.16,West,275,9.0,15.0,60,0.00,,,0.00,Wunderground v.1.15,2013-03-29 01:55:00,
2013-03-28 22:00:00,40.9,27.7,30.16,West,276,10.0,15.0,59,0.00,,,0.00,Wunderground v.1.15,2013-03-29 02:00:00,
2013-03-28 22:05:00,40.8,27.6,30.16,WNW,285,10.0,13.0,59,0.00,,,0.00,Wunderground v.1.15,2013-03-29 02:05:00,
2013-03-28 22:11:00,40.7,27.5,30.16,WNW,287,10.0,10.0,59,0.00,,,0.00,Wunderground v.1.15,2013-03-29 02:11:00,
2013-03-28 22:16:00,40.7,27.5,30.16,WNW,289,9.0,11.0,59,0.00,,,0.00,Wunderground v.1.15,2013-03-29 02:16:00,
2013-03-28 22:22:00,40.6,27.4,30.16,WNW,288,9.0,12.0,59,0.00,,,0.00,Wunderground v.1.15,2013-03-29 02:22:00,
2013-03-28 22:28:00,40.6,28.2,30.16,WNW,294,9.0,12.0,61,0.00,,,0.00,Wunderground v.1.15,2013-03-29 02:28:00,
2013-03-28 22:33:00,40.5,28.5,30.16,NW,305,9.0,10.0,62,0.00,,,0.00,Wunderground v.1.15,2013-03-29 02:33:00,
2013-03-28 22:38:00,40.4,29.2,30.16,WNW,282,8.0,10.0,64,0.00,,,0.00,Wunderground v.1.15,2013-03-29 02:38:00,
2013-03-28 22:44:00,40.3,29.5,30.16,WNW,300,7.0,8.0,65,0.00,,,0.00,Wunderground v.1.15,2013-03-29 02:44:00,
2013-03-28 22:50:00,40.2,30.1,30.16,WNW,296,6.0,8.0,67,0.00,,,0.00,Wunderground v.1.15,2013-03-29 02:50:00,
2013-03-28 22:55:00,40.2,30.8,30.16,WNW,292,6.0,6.0,69,0.00,,,0.00,Wunderground v.1.15,2013-03-29 02:55:00,
2013-03-28 23:01:00,40.1,31.1,30.17,WNW,288,7.0,7.0,70,0.00,,,0.00,Wunderground v.1.15,2013-03-29 03:01:00,
2013-03-28 23:07:00,40.0,31.4,30.16,West,280,7.0,9.0,71,0.00,,,0.00,Wunderground v.1.15,2013-03-29 03:07:00,
2013-03-28 23:12:00,39.8,31.5,30.16,WNW,288,8.0,8.0,72,0.00,,,0.00,Wunderground v.1.15,2013-03-29 03:12:00,
2013-03-28 23:17:00,39.8,31.5,30.16,WNW,291,7.0,9.0,72,0.00,,,0.00,Wunderground v.1.15,2013-03-29 03:17:00,
2013-03-28 23:23:00,39.6,31.7,30.17,WNW,291,7.0,8.0,73,0.00,,,0.00,Wunderground v.1.15,2013-03-29 03:23:00,
2013-03-28 23:28:00,39.5,31.6,30.17,WNW,288,6.0,8.0,73,0.00,,,0.00,Wunderground v.1.15,2013-03-29 03:28:00,
2013-03-28 23:34:00,39.5,31.9,30.17,WNW,288,5.0,8.0,74,0.00,,,0.00,Wunderground v.1.15,2013-03-29 03:34:00,
2013-03-28 23:39:00,39.4,31.8,30.17,WNW,294,5.0,8.0,74,0.00,,,0.00,Wunderground v.1.15,2013-03-29 03:39:00,
2013-03-28 23:45:00,39.3,31.7,30.17,West,281,5.0,7.0,74,0.00,,,0.00,Wunderground v.1.15,2013-03-29 03:45:00,
2013-03-28 23:50:00,39.2,31.9,30.17,WSW,257,5.0,7.0,75,0.00,,,0.00,Wunderground v.1.15,2013-03-29 03:50:00,
2013-03-28 23:56:00,39.1,31.8,30.17,NNW,330,4.0,9.0,75,0.00,,,0.00,Wunderground v.1.15,2013-03-29 03:56:00,